Change the Weather History Date:

Friday, January 13, 2012

  Actual Average Record
Temperature  
Mean Temperature 39 °F 50 °F  
Max Temperature 51 °F 61 °F 79 °F (2000)
Min Temperature 27 °F 40 °F 14 °F (1962)
Degree Days  
Heating Degree Days 26 15  
Month to date heating degree days 142 195  
Since 1 July heating degree days 740 857  
Cooling Degree Days 0 0  
Month to date cooling degree days 3 0  
Year to date cooling degree days 3 0  
Moisture  
Dew Point 18 °F    
Average Humidity 51    
Maximum Humidity 78    
Minimum Humidity 24    
Precipitation  
Precipitation T in 0.19 in 2.76 in (1947)
Month to date precipitation 0.05 2.30  
Year to date precipitation 0.05 2.30  
Snow  
Snow 0.00 in 0.00 in - ()
Month to date snowfall 0.0 0.0  
Since 1 July snowfall 0.0 T  
Snow Depth 0.00 in    
Sea Level Pressure  
Sea Level Pressure 30.26 in    
Wind  
Wind Speed 4 mph (NW)    
Max Wind Speed 13 mph    
Max Gust Speed 18 mph    
Visibility 10 miles    
Events      
T = Trace of Precipitation, MM = Missing Value Source: NWS Daily Summary

Daily Weather History Graph

Daily Weather History Graph

Search for Another Location

Airport or City:

Trip Planner

Search our weather history database for the weather conditions in past years. The results will help you decide how hot, cold, wet, or windy it might be!

Date:

Astronomy

Jan. 13, 2012 Rise Set
Actual Time 6:51 AM CST 5:11 PM CST
Civil Twilight 6:25 AM CST 5:38 PM CST
Nautical Twilight 5:55 AM CST 6:07 PM CST
Astronomical Twilight 5:26 AM CST 6:36 PM CST
Moon 9:59 PM CST (1/13) 9:28 AM CST (1/13)
Length of Visible Light 11h 12m
Length of Day
10h 20m
Waning Gibbous, 78% of the Moon is Illuminated
Jan 13
Waning Gibbous
Jan 16
Last Quarter
Jan 23
New
Jan 30
First Quarter
Feb 7
Full

Hourly Weather History & Observations

Time (CST) Temp. Windchill Dew Point Humidity Pressure Visibility Wind Dir Wind Speed Gust Speed Precip Events Conditions
12:56 AM 35.6 °F 30.7 °F 17.6 °F 48% 30.18 in 10.0 mi WNW 5.8 mph - N/A   Partly Cloudy
1:56 AM 34.0 °F 28.8 °F 18.0 °F 52% 30.19 in 10.0 mi NW 5.8 mph - N/A   Clear
2:56 AM 33.1 °F 27.7 °F 17.1 °F 52% 30.18 in 10.0 mi NW 5.8 mph - N/A   Clear
3:56 AM 30.9 °F 26.2 °F 18.0 °F 59% 30.19 in 10.0 mi NW 4.6 mph - N/A   Clear
4:56 AM 30.9 °F 26.2 °F 18.0 °F 59% 30.22 in 10.0 mi NW 4.6 mph - N/A   Clear
5:56 AM 28.9 °F 25.2 °F 18.0 °F 64% 30.24 in 10.0 mi NW 3.5 mph - N/A   Clear
6:56 AM 27.0 °F 23.0 °F 19.0 °F 72% 30.25 in 10.0 mi NW 3.5 mph - 0.00 in   Partly Cloudy
7:56 AM 32.0 °F 27.5 °F 21.2 °F 64% 30.27 in 10.0 mi NW 4.6 mph - N/A   Partly Cloudy
8:56 AM 37.9 °F 31.5 °F 18.0 °F 45% 30.29 in 10.0 mi NNW 9.2 mph - N/A   Scattered Clouds
9:56 AM 39.9 °F 35.8 °F 15.1 °F 36% 30.31 in 10.0 mi Variable 5.8 mph - N/A   Scattered Clouds
10:56 AM 43.0 °F 38.2 °F 16.0 °F 34% 30.28 in 10.0 mi WNW 8.1 mph - N/A   Scattered Clouds
11:56 AM 46.0 °F 43.9 °F 15.1 °F 29% 30.25 in 10.0 mi NW 4.6 mph - N/A   Scattered Clouds
12:56 PM 48.0 °F - 15.1 °F 27% 30.23 in 10.0 mi North 5.8 mph - N/A   Scattered Clouds
1:56 PM 50.0 °F - 15.1 °F 25% 30.22 in 10.0 mi West 9.2 mph - N/A   Scattered Clouds
2:56 PM 48.9 °F - 14.0 °F 25% 30.20 in 10.0 mi WNW 5.8 mph - N/A   Scattered Clouds
3:56 PM 48.9 °F - 14.0 °F 25% 30.22 in 10.0 mi WNW 8.1 mph - N/A   Mostly Cloudy
4:56 PM 46.0 °F 43.9 °F 16.0 °F 30% 30.25 in 10.0 mi NW 4.6 mph - N/A   Scattered Clouds
5:56 PM 42.1 °F 40.2 °F 19.0 °F 40% 30.26 in 10.0 mi NW 3.5 mph - N/A   Scattered Clouds
6:56 PM 39.0 °F 36.8 °F 19.0 °F 45% 30.29 in 10.0 mi NW 3.5 mph - N/A   Scattered Clouds
7:56 PM 32.0 °F - 23.0 °F 69% 30.31 in 10.0 mi Calm Calm - N/A   Partly Cloudy
8:56 PM 33.1 °F - 23.0 °F 66% 30.33 in 10.0 mi Calm Calm - N/A   Clear
9:56 PM 30.9 °F - 24.1 °F 76% 30.33 in 10.0 mi Calm Calm - N/A   Clear
10:56 PM 30.2 °F - 23.0 °F 75% 30.33 in 10.0 mi Calm Calm - N/A   Clear
11:56 PM 30.0 °F - 23.0 °F 75% 30.32 in 10.0 mi Calm Calm - N/A   Clear